Flag for U.S.A. Weather past 2 weeks in Green Bay, Wisconsin, U.S.A.

Now
31 °F

Ice fog.


Feels Like: 31 °F
Forecast: 32 / 37 °F
Wind: No wind

Location: Austin Straubel International Airport

Current Time: Dec 26, 2014 at 7:46:39 AM

Latest Report: Dec 26, 2014 at 6:53 AM


Visibility: 4 mi

Pressure: 29.97 "Hg

Humidity: 96%

Dew point: 30 °F

Location of Green BayLocation

Historic Weather in Green Bay — Graph

°F

Green Bay temperature yesterday

Maximum temperature yesterday: 36 °F (at 1:53 PM)
Minimum temperature yesterday: 31 °F (at 10:53 PM)
Average temperature yesterday: 34 °F

Past Weeks' High & Low Weather Summary

 TemperatureHumidityPressure
High44 °F (Dec 15, 1:00 PM)100% (Dec 13, 5:53 AM)30.36 "Hg (Dec 13, 5:53 AM)
Low15 °F (Dec 11, 6:53 AM)63% (Dec 17, 2:53 PM)29.48 "Hg (Dec 24, 4:00 PM)
Average32 °F90%30.01 "Hg
* Reported Dec 11 6:53 AM — Dec 26 6:53 AM, Green Bay, Weather by CustomWeather, © 2014

Note: Actual official high and low records may vary slightly from our data, if they occured in-between our weather recording intervals... More about our weather records

Advertising

Green Bay weather history for previous 24 hours

 ConditionsComfort  
Time TempWeatherWind HumidityBarometerVisibility
6:53 AM
Dec 26
31 °FIce fog.No wind96%29.97 "Hg4 mi
5:53 AM31 °FIce fog.No wind96%29.96 "Hg5 mi
4:53 AM31 °FIce fog.No wind96%29.95 "Hg5 mi
3:53 AM30 °FIce fog.No wind96%29.95 "Hg4 mi
3:01 AM30 °FIce fog.No wind96%29.93 "Hg3 mi
1:53 AM31 °FIce fog.No wind96%29.95 "Hg5 mi
12:53 AM31 °FIce fog.No wind92%29.95 "Hg5 mi
11:53 PM
Dec 25
31 °FIce fog.No wind92%29.96 "Hg4 mi
10:53 PM31 °FIce fog.No wind92%29.96 "Hg5 mi
9:53 PM32 °FIce fog.No wind96%29.96 "Hg6 mi
8:53 PM32 °FClear.No wind96%29.94 "Hg7 mi
7:53 PM33 °FClear.No wind92%29.93 "Hg8 mi
6:53 PM34 °FClear.No wind88%29.93 "Hg8 mi
5:53 PM33 °FPassing clouds.6 mph92%29.92 "Hg8 mi
4:53 PM35 °FOvercast.5 mph82%29.91 "Hg9 mi
3:53 PM36 °FOvercast.7 mph79%29.90 "Hg10 mi
2:53 PM36 °FBroken clouds.8 mph79%29.88 "Hg10 mi
1:53 PM36 °FPartly sunny.10 mph79%29.86 "Hg10 mi
12:53 PM35 °FOvercast.13 mph78%29.85 "Hg10 mi
11:53 AM34 °FOvercast.14 mph82%29.84 "Hg10 mi
10:53 AM34 °FOvercast.12 mph82%29.84 "Hg10 mi
9:53 AM34 °FOvercast.13 mph82%29.81 "Hg10 mi
8:53 AM34 °FOvercast.12 mph85%29.79 "Hg10 mi
7:53 AM34 °FOvercast.9 mph85%29.75 "Hg10 mi
Weather by CustomWeather, © 2014

See weather overviewHow to use our weather pages